[[{"header":{"parameterUnit":"m.s-1","parameterCategory":1,"la1":30.2991,"la2":30.254,"lo1":-89.0895,"lo2":-89.0444,"dy":0.0017,"dx":0.0017,"nx":28,"ny":28,"refTime":"2024-12-19T03:00:00:Z","depth":0,"parameterNumber":2,"parameterNumberName":"U-component_of_WINDS"},"data":[0,0,0,0,0,0,0,0,0,0,0,0,0,0,0,0,0,0,0,0,0,0,0,0,0,0,0,0,0,0,0,0,0,0,0,0,0,0,0,0,0,0,0,0,0,0,0,0,0,0,0,0,0,0,0,0,0,0,-0.5668,-0.5669,0,-0.5722,-0.5722,-0.5723,-0.5743,-0.5743,-0.5742,-0.5742,-0.5801,-0.5802,-0.5804,0,0,0,0,0,0,0,0,0,0,0,0,0,-0.5587,-0.5588,-0.5668,-0.5669,-0.567,-0.5722,-0.5722,-0.5723,-0.5743,-0.5743,-0.5742,-0.5742,-0.58,-0.5802,-0.5804,0,0,0,0,0,0,0,0,0,0,0,0,0,-0.5629,-0.5588,-0.5668,-0.5686,-0.5688,-0.5722,-0.5723,-0.5723,-0.5743,-0.5743,-0.5742,-0.5742,-0.5799,-0.5802,-0.5804,-0.5826,0,0,-0.5812,-0.5813,0,0,0,0,0,0,0,0,-0.5627,-0.5632,-0.5682,-0.5684,-0.5687,-0.5725,-0.5715,-0.5758,-0.5743,-0.5722,-0.5742,-0.5742,-0.5776,-0.578,-0.5791,-0.5829,-0.5831,-0.5813,-0.5814,-0.5815,-0.5816,0,0,0,0,0,0,0,-0.5624,-0.563,-0.569,-0.5683,-0.5686,-0.5692,-0.5698,-0.5723,-0.575,-0.5724,-0.5725,-0.5731,-0.5777,-0.5789,-0.5793,-0.5832,-0.5813,-0.5815,-0.5816,-0.5817,-0.5892,-0.5892,0,0,0,0,0,0,-0.5618,-0.5628,-0.5688,-0.5691,-0.5655,-0.5694,-0.57,-0.5713,-0.575,-0.5755,-0.5731,-0.5732,-0.5784,-0.579,-0.5795,-0.5824,-0.5815,-0.5818,-0.5819,-0.5891,-0.5892,-0.5892,0,0,0,0,0,0,-0.5616,-0.5623,-0.5686,-0.566,-0.5668,-0.5695,-0.571,-0.5714,-0.5726,-0.5755,-0.5761,-0.5738,-0.5784,-0.5791,-0.5818,-0.5826,-0.5819,-0.5821,-0.5891,-0.5891,-0.5892,-0.588,0,0,0,0,0,0,-0.5613,-0.5622,-0.5629,-0.566,-0.567,-0.5707,-0.571,-0.5716,-0.573,-0.5731,-0.5763,-0.5768,-0.5785,-0.5814,-0.5821,-0.5829,-0.5823,-0.589,-0.5891,-0.5892,-0.588,-0.588,-0.5881,0,0,0,0,0,-0.561,-0.5625,-0.563,-0.5637,-0.5679,-0.5707,-0.5713,-0.5731,-0.573,-0.5739,-0.5758,-0.5767,-0.5824,-0.5817,-0.5824,-0.5834,-0.589,-0.5891,-0.5892,-0.588,-0.588,-0.5881,0,0,0,0,0,0,-0.5595,-0.5629,-0.5635,-0.5659,-0.568,-0.571,-0.5722,-0.573,-0.5753,-0.5753,-0.5775,-0.5782,-0.5808,-0.5824,-0.5815,-0.5857,-0.5858,-0.586,-0.5846,-0.5847,-0.5847,-0.5843,-0.5825,0,0,0,0,0,-0.5595,-0.5613,-0.5642,-0.5661,-0.5671,-0.5694,-0.5707,-0.5719,-0.5742,-0.5751,-0.5772,-0.5795,-0.5819,-0.5833,-0.5856,-0.5882,-0.589,-0.5893,-0.5893,-0.5893,-0.5895,-0.5911,-0.5913,-0.5895,-0.5895,-0.5895,0,0,-0.5594,-0.5615,-0.5625,-0.5658,-0.5676,-0.5696,-0.5702,-0.5723,-0.5738,-0.5755,-0.5781,-0.5798,-0.5825,-0.5852,-0.5865,-0.5866,-0.5902,-0.5894,-0.5894,-0.5896,-0.5912,-0.5914,-0.5916,-0.5896,-0.5896,-0.5896,0,0,-0.5603,-0.562,-0.5637,-0.5655,-0.5681,-0.5697,-0.5701,-0.573,-0.5742,-0.5768,-0.5782,-0.5801,-0.584,-0.5859,-0.5874,-0.5891,-0.5901,-0.5898,-0.59,-0.5915,-0.5917,-0.5918,-0.5925,-0.5927,-0.59,-0.59,-0.59,0,-0.5599,-0.5628,-0.5646,-0.5666,-0.5681,-0.5696,-0.5715,-0.5732,-0.5764,-0.5775,-0.5775,-0.5825,-0.5844,-0.5876,-0.5881,-0.5892,-0.5899,-0.5895,-0.5915,-0.5916,-0.5918,-0.5925,-0.5927,-0.59,-0.59,-0.59,-0.59,0,-0.5623,-0.5643,-0.5655,-0.5685,-0.5701,-0.5721,-0.5742,-0.5757,-0.5767,-0.5783,-0.5811,-0.5835,-0.5864,-0.5872,-0.5883,-0.5906,-0.5906,-0.591,-0.5911,-0.5919,-0.5926,-0.5929,-0.5899,-0.5899,-0.5899,-0.5899,0,0,-0.5624,-0.5663,-0.5667,-0.5682,-0.5712,-0.5729,-0.575,-0.5777,-0.5789,-0.5812,-0.5831,-0.5863,-0.5868,-0.5885,-0.5898,-0.5911,-0.5925,-0.5915,-0.5916,-0.5916,-0.5953,-0.595,-0.5953,-0.5931,-0.5932,-0.5932,-0.5951,0,-0.5637,-0.5674,-0.569,-0.572,-0.574,-0.5755,-0.5774,-0.5795,-0.5811,-0.5831,-0.5849,-0.5872,-0.5876,-0.5886,-0.59,-0.592,-0.5933,-0.5919,-0.595,-0.5951,-0.5943,-0.5956,-0.5953,-0.597,-0.5954,-0.5954,-0.5955,0,-0.5657,-0.5679,-0.571,-0.5739,-0.5748,-0.5764,-0.5791,-0.5809,-0.5835,-0.5845,-0.5864,-0.5877,-0.5901,-0.59,-0.5934,-0.5924,-0.5938,-0.595,-0.5952,-0.5956,-0.5954,-0.5962,-0.5975,-0.5978,-0.5959,-0.5959,-0.5958,0,-0.5656,-0.5693,-0.5717,-0.5729,-0.5763,-0.5774,-0.5789,-0.5813,-0.5829,-0.5852,-0.5863,-0.5889,-0.5904,-0.5924,-0.5945,-0.5942,-0.5977,-0.5978,-0.5988,-0.5988,-0.5996,-0.5995,-0.6012,-0.6003,-0.6003,-0.6003,-0.6003,0,-0.5669,-0.5688,-0.5717,-0.5731,-0.5753,-0.5773,-0.5795,-0.5811,-0.5833,-0.5853,-0.5867,-0.5886,-0.5911,-0.5932,-0.5948,-0.5975,-0.5981,-0.5992,-0.5996,-0.5991,-0.599,-0.6001,-0.6,-0.6004,-0.6004,-0.6003,-0.6003,0,-0.5672,-0.5691,-0.5718,-0.5748,-0.5756,-0.5771,-0.5798,-0.5813,-0.583,-0.5854,-0.5861,-0.5887,-0.5914,-0.5936,-0.5971,-0.5982,-0.601,-0.6014,-0.6001,-0.6003,-0.6013,-0.6012,-0.6039,-0.6044,-0.603,-0.603,-0.603,0,-0.5679,-0.5694,-0.5725,-0.5739,-0.5753,-0.5775,-0.579,-0.5811,-0.5827,-0.5857,-0.5869,-0.5897,-0.5919,-0.5961,-0.5984,-0.6011,-0.6017,-0.6025,-0.6022,-0.6016,-0.6019,-0.6018,-0.602,-0.6025,-0.6025,-0.6025,-0.6025,0,-0.5691,-0.57,-0.5721,-0.5746,-0.5764,-0.5785,-0.5807,-0.5817,-0.5842,-0.5859,-0.5886,-0.5903,-0.5939,-0.5966,-0.5996,-0.6013,-0.6024,-0.6026,-0.603,-0.6026,-0.6017,-0.6023,-0.6002,-0.6026,-0.6026,-0.6026,-0.6026,-0.6026,-0.5697,-0.5711,-0.5735,-0.5759,-0.5777,-0.5797,-0.5813,-0.5832,-0.5854,-0.5884,-0.5895,-0.5922,-0.5949,-0.5989,-0.6006,-0.6029,-0.6031,-0.6036,-0.6038,-0.6039,-0.6039,-0.6013,-0.6035,-0.6035,-0.6035,-0.6035,-0.6035,0,-0.571,-0.5727,-0.5748,-0.5777,-0.5796,-0.5804,-0.5828,-0.5844,-0.5867,-0.589,-0.5912,-0.5944,-0.5971,-0.5996,-0.6024,-0.6038,-0.6044,-0.6045,-0.6044,-0.6048,-0.6036,-0.603,-0.604,-0.604,-0.604,-0.604,-0.604,-0.604,-0.5719,-0.5744,-0.5756,-0.5791,-0.5807,-0.5834,-0.5847,-0.5866,-0.5885,-0.5918,-0.594,-0.5956,-0.5981,-0.6011,-0.6037,-0.6044,-0.6054,-0.6054,-0.6062,-0.605,-0.6049,-0.6048,-0.6043,-0.6056,-0.6056,-0.6073,-0.6073,-0.6074]},{"header":{"parameterUnit":"m.s-1","parameterCategory":1,"la1":30.2991,"la2":30.254,"lo1":-89.0895,"lo2":-89.0444,"dy":0.0017,"dx":0.0017,"nx":28,"ny":28,"refTime":"2024-12-19T03:00:00:Z","depth":0,"parameterNumber":3,"parameterNumberName":"V-component_of_WINDS"},"data":[0,0,0,0,0,0,0,0,0,0,0,0,0,0,0,0,0,0,0,0,0,0,0,0,0,0,0,0,0,0,0,0,0,0,0,0,0,0,0,0,0,0,0,0,0,0,0,0,0,0,0,0,0,0,0,0,0,0,-3.5382,-3.5381,0,-3.5345,-3.5344,-3.5344,-3.5307,-3.5306,-3.5306,-3.5305,-3.5266,-3.5266,-3.5265,0,0,0,0,0,0,0,0,0,0,0,0,0,-3.5421,-3.5421,-3.5382,-3.5381,-3.5381,-3.5345,-3.5344,-3.5344,-3.5307,-3.5306,-3.5306,-3.5305,-3.5266,-3.5266,-3.5265,0,0,0,0,0,0,0,0,0,0,0,0,0,-3.5396,-3.542,-3.5382,-3.5358,-3.5356,-3.5345,-3.5344,-3.5343,-3.5307,-3.5306,-3.5306,-3.5305,-3.5267,-3.5266,-3.5265,-3.5274,0,0,-3.5262,-3.5262,0,0,0,0,0,0,0,0,-3.5397,-3.5395,-3.5362,-3.536,-3.5357,-3.533,-3.5344,-3.532,-3.5307,-3.5325,-3.5305,-3.5305,-3.5288,-3.5285,-3.528,-3.5272,-3.527,-3.5262,-3.5262,-3.5261,-3.5261,0,0,0,0,0,0,0,-3.5399,-3.5396,-3.5367,-3.5362,-3.5359,-3.5349,-3.5345,-3.5339,-3.5311,-3.5324,-3.5321,-3.5317,-3.5286,-3.5281,-3.5279,-3.527,-3.5262,-3.5261,-3.5261,-3.526,-3.527,-3.5271,0,0,0,0,0,0,-3.5405,-3.5398,-3.5368,-3.5366,-3.5376,-3.5349,-3.5344,-3.5339,-3.5311,-3.5306,-3.5318,-3.5316,-3.5283,-3.528,-3.5277,-3.5287,-3.5261,-3.526,-3.526,-3.5269,-3.527,-3.5271,0,0,0,0,0,0,-3.5406,-3.5402,-3.537,-3.5381,-3.5376,-3.5349,-3.5344,-3.5339,-3.5333,-3.5307,-3.5301,-3.5317,-3.5282,-3.5278,-3.5276,-3.5285,-3.526,-3.5259,-3.5268,-3.527,-3.5271,-3.5307,0,0,0,0,0,0,-3.5407,-3.5403,-3.5406,-3.5381,-3.5376,-3.5369,-3.5344,-3.5339,-3.5332,-3.5329,-3.5305,-3.53,-3.5281,-3.5277,-3.5275,-3.5284,-3.5259,-3.5267,-3.5269,-3.527,-3.5305,-3.531,-3.5313,0,0,0,0,0,-3.5408,-3.5417,-3.5406,-3.5403,-3.5379,-3.5369,-3.5366,-3.5344,-3.5333,-3.5336,-3.5319,-3.5301,-3.5285,-3.5277,-3.5274,-3.5283,-3.5267,-3.5269,-3.527,-3.5303,-3.5309,-3.5313,0,0,0,0,0,0,-3.5442,-3.5413,-3.5401,-3.5402,-3.5389,-3.5363,-3.5366,-3.5351,-3.534,-3.5337,-3.531,-3.5305,-3.5306,-3.5294,-3.5286,-3.5291,-3.5273,-3.5275,-3.5299,-3.5304,-3.5308,-3.5312,-3.5258,0,0,0,0,0,-3.545,-3.5445,-3.542,-3.5423,-3.5417,-3.5393,-3.5388,-3.5373,-3.5357,-3.5351,-3.5334,-3.532,-3.5312,-3.5307,-3.5298,-3.5303,-3.5298,-3.5308,-3.5312,-3.5316,-3.5317,-3.5321,-3.5325,-3.5277,-3.5277,-3.5277,0,0,-3.5466,-3.5449,-3.5447,-3.5429,-3.5417,-3.5413,-3.5388,-3.5384,-3.5381,-3.5351,-3.5348,-3.5335,-3.5317,-3.5319,-3.5319,-3.5309,-3.533,-3.5318,-3.5321,-3.532,-3.5323,-3.5328,-3.5332,-3.5278,-3.5278,-3.5278,0,0,-3.5492,-3.5479,-3.5481,-3.547,-3.5452,-3.5436,-3.5437,-3.5415,-3.5405,-3.5402,-3.538,-3.5375,-3.5361,-3.5351,-3.5343,-3.5368,-3.5352,-3.5366,-3.5388,-3.5392,-3.5396,-3.5399,-3.5409,-3.5413,-3.5367,-3.5368,-3.5368,0,-3.5514,-3.5507,-3.5484,-3.5482,-3.5475,-3.5449,-3.5451,-3.5441,-3.5421,-3.5417,-3.5407,-3.539,-3.5377,-3.5376,-3.5383,-3.5377,-3.5378,-3.5369,-3.5397,-3.54,-3.5403,-3.5412,-3.5416,-3.537,-3.5369,-3.5369,-3.5369,0,-3.5535,-3.553,-3.5534,-3.5517,-3.5511,-3.5511,-3.5489,-3.5485,-3.5471,-3.5456,-3.5454,-3.5437,-3.5425,-3.5424,-3.5409,-3.5422,-3.5417,-3.5402,-3.5383,-3.541,-3.5418,-3.5422,-3.5372,-3.5372,-3.5371,-3.5371,0,0,-3.5581,-3.5553,-3.5555,-3.5548,-3.5527,-3.5523,-3.5523,-3.5512,-3.551,-3.5497,-3.5497,-3.5487,-3.5474,-3.5466,-3.545,-3.5453,-3.5476,-3.5438,-3.5437,-3.5447,-3.5491,-3.5504,-3.5508,-3.5465,-3.5465,-3.5466,-3.5493,0,-3.5605,-3.5603,-3.5584,-3.5587,-3.5584,-3.5559,-3.5559,-3.5547,-3.5534,-3.5529,-3.5514,-3.5509,-3.5491,-3.5486,-3.5488,-3.5473,-3.5485,-3.547,-3.5465,-3.5465,-3.5471,-3.5512,-3.5525,-3.5552,-3.5496,-3.5497,-3.5497,0,-3.5633,-3.5624,-3.5627,-3.5609,-3.5607,-3.5607,-3.5596,-3.5592,-3.5578,-3.5568,-3.556,-3.5543,-3.5542,-3.5524,-3.5523,-3.5514,-3.551,-3.5503,-3.5503,-3.5503,-3.5484,-3.5514,-3.5559,-3.5564,-3.5502,-3.5502,-3.5501,0,-3.5668,-3.5656,-3.5658,-3.5652,-3.563,-3.5631,-3.5622,-3.5607,-3.5603,-3.5593,-3.559,-3.5581,-3.5576,-3.5569,-3.555,-3.5538,-3.5552,-3.5532,-3.5545,-3.5545,-3.5549,-3.5549,-3.5596,-3.5545,-3.5545,-3.5545,-3.5545,0,-3.5698,-3.5701,-3.5674,-3.5675,-3.5679,-3.5656,-3.5661,-3.5649,-3.5637,-3.5636,-3.5613,-3.5612,-3.5587,-3.5583,-3.5568,-3.5571,-3.5568,-3.5561,-3.5557,-3.5564,-3.5565,-3.5562,-3.556,-3.5546,-3.5546,-3.5546,-3.5545,0,-3.5738,-3.5719,-3.572,-3.5699,-3.5694,-3.5698,-3.5681,-3.5681,-3.5667,-3.5666,-3.5665,-3.5643,-3.5638,-3.5618,-3.5608,-3.5598,-3.5606,-3.5598,-3.5611,-3.5609,-3.5624,-3.5623,-3.5671,-3.5677,-3.5621,-3.5622,-3.5622,0,-3.5758,-3.5761,-3.5742,-3.574,-3.5732,-3.5728,-3.5724,-3.5702,-3.5699,-3.5684,-3.5687,-3.568,-3.5674,-3.5668,-3.5651,-3.5644,-3.5636,-3.5653,-3.5635,-3.5642,-3.5638,-3.5639,-3.564,-3.5657,-3.5658,-3.5659,-3.5659,0,-3.5797,-3.5789,-3.5783,-3.5776,-3.5772,-3.5764,-3.5756,-3.5755,-3.5731,-3.5729,-3.5724,-3.5719,-3.571,-3.5704,-3.5695,-3.5685,-3.5669,-3.5665,-3.5668,-3.5675,-3.5684,-3.5681,-3.5624,-3.5664,-3.5664,-3.5663,-3.5663,-3.5663,-3.5829,-3.5831,-3.5819,-3.5814,-3.5806,-3.5799,-3.5799,-3.5786,-3.5782,-3.5773,-3.576,-3.5758,-3.5745,-3.5731,-3.5723,-3.5721,-3.5712,-3.5715,-3.5717,-3.5718,-3.5722,-3.5684,-3.5719,-3.5719,-3.5719,-3.5719,-3.5719,0,-3.5869,-3.586,-3.5856,-3.5845,-3.5842,-3.5828,-3.5818,-3.5816,-3.5814,-3.5804,-3.5799,-3.5795,-3.579,-3.5774,-3.5767,-3.5769,-3.5761,-3.5768,-3.5768,-3.5767,-3.573,-3.5729,-3.5774,-3.5774,-3.5774,-3.5774,-3.5774,-3.5774,-3.5889,-3.5892,-3.5882,-3.5882,-3.5873,-3.5871,-3.5867,-3.586,-3.5853,-3.5849,-3.5845,-3.5835,-3.5823,-3.5816,-3.5811,-3.5806,-3.5805,-3.5815,-3.5808,-3.5774,-3.5769,-3.5764,-3.5763,-3.5815,-3.5815,-3.5845,-3.5845,-3.5846]}]]